[[{"header":{"parameterUnit":"m.s-1","parameterCategory":1,"la1":30.2991,"la2":30.254,"lo1":-89.0895,"lo2":-89.0444,"dy":0.0017,"dx":0.0017,"nx":28,"ny":28,"refTime":"2025-04-05T21:00:00:Z","depth":0,"parameterNumber":2,"parameterNumberName":"U-component_of_WINDS"},"data":[0,0,0,0,0,0,0,0,0,0,0,0,0,0,0,0,0,0,0,0,0,0,0,0,0,0,0,0,0,0,0,0,0,0,0,0,0,0,0,0,0,0,0,0,0,0,0,0,0,0,0,0,0,0,0,0,0,0,-4.9408,-4.9409,0,-4.9546,-4.9547,-4.9549,-4.9584,-4.9584,-4.9583,-4.9582,-4.9723,-4.9727,-4.9732,0,0,0,0,0,0,0,0,0,0,0,0,0,-4.9175,-4.9179,-4.9408,-4.9409,-4.9411,-4.9546,-4.9548,-4.9549,-4.9585,-4.9584,-4.9583,-4.9582,-4.9721,-4.9727,-4.9732,0,0,0,0,0,0,0,0,0,0,0,0,0,-4.9291,-4.9181,-4.9407,-4.9445,-4.945,-4.9545,-4.9548,-4.955,-4.9585,-4.9584,-4.9582,-4.9581,-4.972,-4.9726,-4.9733,-4.9801,0,0,-4.9754,-4.9757,0,0,0,0,0,0,0,0,-4.9284,-4.9299,-4.9438,-4.9442,-4.9448,-4.9547,-4.9517,-4.9634,-4.9585,-4.9533,-4.9582,-4.958,-4.9665,-4.9676,-4.9705,-4.9807,-4.9813,-4.9754,-4.9759,-4.9761,-4.9763,0,0,0,0,0,0,0,-4.9276,-4.9294,-4.9462,-4.944,-4.9446,-4.9455,-4.947,-4.954,-4.9605,-4.9538,-4.9541,-4.9557,-4.9668,-4.9698,-4.9709,-4.9816,-4.9754,-4.976,-4.9764,-4.9767,-4.9981,-4.9983,0,0,0,0,0,0,-4.9262,-4.9287,-4.9458,-4.9466,-4.9361,-4.946,-4.9477,-4.9516,-4.9604,-4.9616,-4.9558,-4.9558,-4.9687,-4.9701,-4.9714,-4.9799,-4.9761,-4.9768,-4.9772,-4.998,-4.9982,-4.9983,0,0,0,0,0,0,-4.9257,-4.9277,-4.9452,-4.9378,-4.9401,-4.9466,-4.9509,-4.952,-4.955,-4.9619,-4.9631,-4.9577,-4.9687,-4.9704,-4.9779,-4.9804,-4.9771,-4.9777,-4.9978,-4.998,-4.9983,-4.9969,0,0,0,0,0,0,-4.925,-4.9275,-4.93,-4.9378,-4.9404,-4.9515,-4.9511,-4.9523,-4.9562,-4.9564,-4.964,-4.9652,-4.9687,-4.9769,-4.9786,-4.9813,-4.9782,-4.9976,-4.9979,-4.9982,-4.9967,-4.9971,-4.9973,0,0,0,0,0,-4.9241,-4.9291,-4.9302,-4.9322,-4.9438,-4.9516,-4.9531,-4.9571,-4.9564,-4.9591,-4.9635,-4.9649,-4.9799,-4.9776,-4.9796,-4.9825,-4.9974,-4.9978,-4.9982,-4.9966,-4.997,-4.9973,0,0,0,0,0,0,-4.9214,-4.9302,-4.9314,-4.9391,-4.9446,-4.9522,-4.9557,-4.9574,-4.9632,-4.9631,-4.9678,-4.9696,-4.9767,-4.9804,-4.9777,-4.9896,-4.9887,-4.9895,-4.9868,-4.9873,-4.9876,-4.9864,-4.9788,0,0,0,0,0,-4.9217,-4.9273,-4.9347,-4.9407,-4.9434,-4.9491,-4.9526,-4.9553,-4.9611,-4.9635,-4.9685,-4.9741,-4.9801,-4.984,-4.9899,-4.9974,-4.9991,-5.0004,-5.0007,-5.0009,-5.0014,-5.0057,-5.0064,-4.9995,-4.9995,-4.9995,0,0,-4.9224,-4.9278,-4.9311,-4.9403,-4.9449,-4.9505,-4.951,-4.957,-4.9612,-4.9644,-4.9717,-4.9756,-4.9823,-4.9898,-4.9934,-4.9931,-5.0038,-5.0014,-5.0015,-5.0019,-5.0062,-5.0068,-5.0074,-4.9998,-4.9997,-4.9997,0,0,-4.9264,-4.9311,-4.9367,-4.9413,-4.9483,-4.952,-4.9534,-4.9608,-4.9635,-4.971,-4.9735,-4.9787,-4.9889,-4.9936,-4.9972,-5.0033,-5.0048,-5.0051,-5.0066,-5.0107,-5.0112,-5.0117,-5.0138,-5.0145,-5.0057,-5.0057,-5.0057,0,-4.9263,-4.9349,-4.9393,-4.9452,-4.9491,-4.9524,-4.958,-4.9623,-4.9708,-4.9735,-4.9732,-4.9861,-4.9908,-4.9995,-5.001,-5.0039,-5.0056,-5.0041,-5.0108,-5.0113,-5.0119,-5.0139,-5.0147,-5.0057,-5.0057,-5.0057,-5.0057,0,-4.9344,-4.9404,-4.944,-4.9522,-4.9566,-4.9624,-4.9676,-4.9716,-4.974,-4.9778,-4.9854,-4.9913,-4.9984,-5.0007,-5.003,-5.0098,-5.0094,-5.0099,-5.009,-5.0124,-5.0144,-5.0152,-5.0057,-5.0057,-5.0057,-5.0057,0,0,-4.9368,-4.9475,-4.9487,-4.9525,-4.9605,-4.9653,-4.9712,-4.9783,-4.9815,-4.9874,-4.9925,-5.0012,-5.0017,-5.0059,-5.0089,-5.0125,-5.0169,-5.0126,-5.0128,-5.013,-5.0246,-5.024,-5.0248,-5.018,-5.0182,-5.0183,-5.024,0,-4.9417,-4.9523,-4.9565,-4.9652,-4.9708,-4.9741,-4.9793,-4.9848,-4.9886,-4.994,-4.9982,-5.0043,-5.0046,-5.0071,-5.0109,-5.0155,-5.0192,-5.0152,-5.0227,-5.0229,-5.0207,-5.0259,-5.0252,-5.0302,-5.0248,-5.0249,-5.025,0,-4.9487,-4.9547,-4.9639,-4.9713,-4.9739,-4.9784,-4.9853,-4.9903,-4.9967,-4.9993,-5.0041,-5.0068,-5.0132,-5.0122,-5.0211,-5.0183,-5.0217,-5.0244,-5.0247,-5.0253,-5.024,-5.0265,-5.0319,-5.0326,-5.0263,-5.0262,-5.0261,0,-4.9493,-4.9597,-4.9666,-4.9697,-4.9786,-4.9818,-4.9856,-4.9919,-4.9959,-5.0019,-5.0046,-5.0113,-5.0149,-5.0201,-5.0246,-5.0234,-5.033,-5.0324,-5.0352,-5.0351,-5.0369,-5.0367,-5.0428,-5.0394,-5.0394,-5.0394,-5.0394,0,-4.9542,-4.9597,-4.967,-4.9712,-4.9775,-4.9823,-4.9884,-4.9925,-4.9981,-5.0032,-5.0066,-5.0113,-5.0171,-5.0225,-5.0261,-5.0329,-5.0346,-5.0368,-5.0376,-5.0363,-5.036,-5.0384,-5.0381,-5.0396,-5.0396,-5.0395,-5.0395,0,-4.9558,-4.961,-4.9686,-4.9765,-4.9786,-4.9829,-4.9896,-4.9939,-4.998,-5.0044,-5.0062,-5.0126,-5.0192,-5.0243,-5.0329,-5.0354,-5.0425,-5.0435,-5.0403,-5.0407,-5.0432,-5.0428,-5.0509,-5.0522,-5.0481,-5.0481,-5.0482,0,-4.9585,-4.9628,-4.9712,-4.9748,-4.9787,-4.9845,-4.9886,-4.9937,-4.9979,-5.0056,-5.0089,-5.0158,-5.0215,-5.032,-5.0374,-5.044,-5.0451,-5.0475,-5.0461,-5.0447,-5.045,-5.0446,-5.045,-5.0476,-5.0476,-5.0476,-5.0476,0,-4.9626,-4.965,-4.9708,-4.9775,-4.9824,-4.9879,-4.9936,-4.9964,-5.0025,-5.007,-5.0138,-5.0183,-5.0272,-5.0339,-5.0412,-5.0452,-5.0474,-5.0481,-5.0491,-5.0477,-5.0456,-5.0466,-5.0405,-5.0478,-5.0478,-5.0477,-5.0477,-5.0477,-4.9648,-4.9687,-4.9753,-4.9817,-4.9865,-4.9917,-4.996,-5.0007,-5.0065,-5.0141,-5.0168,-5.0238,-5.0303,-5.0402,-5.0443,-5.0499,-5.05,-5.0514,-5.0518,-5.052,-5.0518,-5.0449,-5.0513,-5.0513,-5.0513,-5.0513,-5.0513,0,-4.9689,-4.9734,-4.9792,-4.987,-4.992,-4.9938,-5.0002,-5.0043,-5.0104,-5.0162,-5.0219,-5.0298,-5.0364,-5.0425,-5.0494,-5.0527,-5.0539,-5.0544,-5.054,-5.0549,-5.0514,-5.0498,-5.0533,-5.0533,-5.0533,-5.0533,-5.0533,-5.0533,-4.9717,-4.9785,-4.9817,-4.9909,-4.9954,-5.0022,-5.0057,-5.0106,-5.0153,-5.0239,-5.0294,-5.0334,-5.0393,-5.0468,-5.053,-5.0546,-5.0569,-5.0571,-5.0589,-5.0555,-5.0552,-5.0549,-5.0534,-5.0576,-5.0576,-5.062,-5.062,-5.062]},{"header":{"parameterUnit":"m.s-1","parameterCategory":1,"la1":30.2991,"la2":30.254,"lo1":-89.0895,"lo2":-89.0444,"dy":0.0017,"dx":0.0017,"nx":28,"ny":28,"refTime":"2025-04-05T21:00:00:Z","depth":0,"parameterNumber":3,"parameterNumberName":"V-component_of_WINDS"},"data":[0,0,0,0,0,0,0,0,0,0,0,0,0,0,0,0,0,0,0,0,0,0,0,0,0,0,0,0,0,0,0,0,0,0,0,0,0,0,0,0,0,0,0,0,0,0,0,0,0,0,0,0,0,0,0,0,0,0,5.2508,5.2508,0,5.2583,5.2584,5.2585,5.2646,5.2647,5.2647,5.2648,5.2724,5.2726,5.2727,0,0,0,0,0,0,0,0,0,0,0,0,0,5.2416,5.2418,5.2508,5.2509,5.251,5.2583,5.2584,5.2585,5.2646,5.2647,5.2648,5.2648,5.2724,5.2726,5.2727,0,0,0,0,0,0,0,0,0,0,0,0,0,5.247,5.2418,5.2507,5.2549,5.2553,5.2583,5.2584,5.2586,5.2646,5.2647,5.2648,5.2649,5.2723,5.2725,5.2728,5.2722,0,0,5.2734,5.2735,0,0,0,0,0,0,0,0,5.2467,5.2474,5.2542,5.2546,5.2551,5.2606,5.258,5.2631,5.2646,5.2611,5.2648,5.2649,5.2684,5.269,5.2702,5.2726,5.2729,5.2734,5.2736,5.2737,5.2737,0,0,0,0,0,0,0,5.2463,5.2471,5.2538,5.2543,5.2548,5.2564,5.2572,5.259,5.2641,5.2614,5.2618,5.2627,5.2687,5.27,5.2704,5.273,5.2734,5.2736,5.2738,5.2738,5.2757,5.2756,0,0,0,0,0,0,5.2453,5.2467,5.2535,5.254,5.2511,5.2565,5.2574,5.2588,5.2641,5.265,5.2626,5.2629,5.2695,5.2701,5.2707,5.2707,5.2737,5.2739,5.274,5.2758,5.2757,5.2756,0,0,0,0,0,0,5.2451,5.2459,5.2532,5.2505,5.2515,5.2565,5.258,5.2589,5.2601,5.265,5.266,5.2629,5.2696,5.2704,5.2719,5.271,5.274,5.2742,5.2759,5.2758,5.2757,5.2705,0,0,0,0,0,0,5.2448,5.2457,5.2456,5.2504,5.2517,5.2542,5.2579,5.2589,5.2605,5.261,5.2656,5.2664,5.2698,5.2715,5.2721,5.2714,5.2743,5.276,5.2758,5.2757,5.2708,5.2702,5.2697,0,0,0,0,0,5.2445,5.2437,5.2455,5.2463,5.2515,5.2542,5.2549,5.2588,5.2604,5.2603,5.2635,5.2663,5.271,5.2716,5.2723,5.2717,5.2761,5.2759,5.2757,5.271,5.2703,5.2697,0,0,0,0,0,0,5.2385,5.2444,5.2465,5.2473,5.2502,5.2552,5.2552,5.2579,5.2603,5.2607,5.2654,5.2663,5.2674,5.2696,5.2702,5.2716,5.2739,5.2739,5.2701,5.2695,5.269,5.2685,5.2745,0,0,0,0,0,5.2373,5.239,5.244,5.2442,5.2456,5.2501,5.2514,5.2542,5.2574,5.2586,5.2619,5.2648,5.2671,5.2684,5.2706,5.2711,5.2723,5.271,5.2705,5.27,5.27,5.2707,5.2702,5.275,5.275,5.275,0,0,5.2348,5.2382,5.239,5.2431,5.2457,5.2474,5.2511,5.2526,5.254,5.2588,5.2605,5.263,5.2667,5.2677,5.2684,5.2697,5.2689,5.2698,5.2694,5.2696,5.2704,5.27,5.2696,5.2749,5.2749,5.2749,0,0,5.2312,5.2338,5.2345,5.237,5.2409,5.244,5.2441,5.2488,5.2507,5.2525,5.2562,5.2579,5.2614,5.264,5.2657,5.2633,5.266,5.2639,5.2612,5.2619,5.2615,5.2612,5.2605,5.2602,5.2638,5.2637,5.2637,0,5.2276,5.2303,5.2344,5.2359,5.2377,5.2422,5.243,5.2452,5.2496,5.2508,5.2522,5.257,5.2597,5.2616,5.261,5.2622,5.2627,5.2634,5.2612,5.2609,5.2607,5.2602,5.2599,5.2635,5.2635,5.2635,5.2636,0,5.2258,5.2276,5.2276,5.2319,5.2337,5.2348,5.2392,5.2405,5.2431,5.2461,5.248,5.2514,5.2546,5.2552,5.2577,5.2575,5.2582,5.2603,5.2628,5.2599,5.2595,5.2593,5.2631,5.2632,5.2633,5.2633,0,0,5.2186,5.2253,5.2253,5.2274,5.2321,5.2337,5.235,5.2382,5.2393,5.2422,5.2436,5.2466,5.2487,5.2507,5.2535,5.2541,5.2522,5.2562,5.2563,5.2555,5.2525,5.251,5.2507,5.2541,5.254,5.254,5.2523,0,5.2159,5.2186,5.2225,5.2239,5.2258,5.2302,5.2314,5.2345,5.2373,5.2393,5.2424,5.2446,5.247,5.2483,5.249,5.2523,5.2517,5.2524,5.2555,5.2555,5.2546,5.2505,5.2488,5.2471,5.2521,5.2521,5.2521,0,5.2131,5.2159,5.2176,5.2224,5.2233,5.2243,5.2277,5.2295,5.2332,5.2352,5.2375,5.2407,5.2424,5.2445,5.2471,5.2476,5.249,5.2509,5.2509,5.2514,5.2537,5.2511,5.2466,5.2463,5.2518,5.2518,5.2518,0,5.208,5.2122,5.2138,5.2154,5.221,5.2217,5.224,5.2278,5.2295,5.2325,5.2337,5.2367,5.2384,5.2408,5.2447,5.2459,5.247,5.2494,5.2488,5.2487,5.249,5.2489,5.2448,5.2496,5.2496,5.2496,5.2496,0,5.2047,5.2055,5.2116,5.2126,5.2138,5.2183,5.2194,5.2221,5.2254,5.2272,5.2311,5.2326,5.2376,5.2397,5.2428,5.2447,5.2453,5.2471,5.248,5.2469,5.2467,5.248,5.2483,5.2495,5.2495,5.2495,5.2496,0,5.1992,5.2033,5.2054,5.2105,5.2119,5.2125,5.217,5.2182,5.2213,5.2234,5.2242,5.229,5.2318,5.2359,5.2398,5.2419,5.2433,5.2446,5.2421,5.2427,5.242,5.2421,5.2387,5.2386,5.2432,5.2432,5.2431,0,5.1969,5.1977,5.203,5.2045,5.2068,5.209,5.2109,5.2153,5.2171,5.2215,5.2222,5.2253,5.228,5.2322,5.2361,5.2391,5.2406,5.2392,5.2411,5.2401,5.2409,5.2409,5.2411,5.2388,5.2388,5.2387,5.2386,0,5.1925,5.1945,5.197,5.2003,5.2025,5.2053,5.2083,5.2092,5.2144,5.2162,5.2191,5.2212,5.2254,5.2284,5.2321,5.2346,5.2376,5.238,5.2381,5.2371,5.2357,5.2367,5.2411,5.2381,5.2382,5.2382,5.2382,5.2382,5.1887,5.1897,5.1937,5.1965,5.1992,5.202,5.2035,5.2068,5.2093,5.2131,5.2156,5.2184,5.2222,5.2275,5.2298,5.2322,5.2334,5.2334,5.2335,5.2335,5.2332,5.2352,5.2328,5.2328,5.2329,5.2329,5.2329,0,5.1847,5.1875,5.19,5.1941,5.1964,5.1989,5.2024,5.2042,5.2066,5.2099,5.2126,5.216,5.2191,5.2233,5.2267,5.2277,5.2292,5.2285,5.2285,5.2291,5.2318,5.2315,5.2273,5.2273,5.2273,5.2273,5.2273,5.2273,5.1828,5.1848,5.1873,5.1908,5.1936,5.1965,5.1983,5.2009,5.2037,5.2074,5.2099,5.2127,5.2164,5.2202,5.2231,5.2243,5.2254,5.2244,5.2259,5.2284,5.2289,5.2294,5.2291,5.2245,5.2245,5.2231,5.2231,5.2231]}]]